sat.trackr.live / text

‹ back to catalog

STARLINK-1771

NORAD 46384 · 2020-062BM

PAYLOAD ACTIVE UNKNOWN

§ Identity

Operator
Country
US
Launch date
2020-09-03
Launch site
AFETR
Launch vehicle
Mass (kg)
RCS (m²)

Purposes: comms

External: N2YO · Heavens-Above · Gunter

§ Orbital elements

Epoch: 2026-09-20T03:59:32.596800Z

Period
91.47 min
Inclination
53.0309°
Eccentricity
0.0003501
Mean motion
15.74253155 rev/d
Perigee alt
344.4 km
Apogee alt
349.1 km
Semi-major
6,724.9 km
B*
3.8516e-4
RAAN
116.2449°
Arg perigee
133.4366°
Mean anomaly
226.6944°
Rev number
33,512

§ Raw data

STARLINK-17711 46384U 20062BM  26263.16634950  .00056334  00000+0  38516-3 0  99942 46384  53.0309 116.2449 0003501 133.4366 226.6944 15.74253155335124

JSON: /api/v1/satellites/46384 · /tle

For live sub-satellite position, see the globe view (requires WebGL).

§ Visibility from observer

Set your observer location to see the next 7 days of passes ≥ 10°. The values pass through the URL so the page stays shareable.

No JS? Fill the form by hand. The geolocation button needs JavaScript.